User: anonymous   Login
Location: El Bakhil
(32.7726°N, 5.5387°W)
Time: 02:32:33
(UTC+00:00)
Language:

EO-88 - Orbit

View from above orbital plane
View from above orbital plane
View from above satellite
View from above satellite

Ground track
Ground track

The orbit data is extracted from the following two-line orbital elements,

1 42017U 17008BX  21206.40523377  .00003211  00000-0  11877-3 0  9996
2 42017  97.3139 273.3266 0005240 351.5373   8.5777 15.28400251247055
Epoch (UTC): 25 July 2021 09:43:32
Eccentricity: 0.0005240
inclination: 97.3139°
perigee height: 477 km
apogee height: 484 km
right ascension of ascending node: 273.3266°
argument of perigee: 351.5373°
revolutions per day: 15.28400251
mean anomaly at epoch: 8.5777°
orbit number at epoch: 24705

The dashed part of the orbit path shows where the satellite is in the earth's shadow,  

DLR